Weather observations for the past three days for
Clearfield, Clearfield-Lawrence Airport
Imperial (Metric)
Date Time (edt) Wind (mph) Vis. (mi.) Weather Sky Cond. Temperature (ºF) Relative Humidity Wind Chill (°F) Heat Index (°F) Pressure Precipitation (in)
Air Dwpt 6 hour altimeter (in) sea level (mb) 1 hr 3 hr 6 hr
Max. Min.
17 23:54 S 5 2.00 Fog/Mist OVC002 68 68 100% 29.96 1013.3
17 22:54 S 3 5.00 Fog/Mist FEW002 FEW011 68 68 100% 29.94 1012.9
17 21:54 Calm 7.00 Overcast OVC002 69.1 68 96% 29.95 1013.3
17 20:54 SW 3 6.00 Fog/Mist FEW004 69.1 68 96% 29.93 1012.4
17 19:54 S 5 7.00 Mostly Cloudy BKN005 69.1 68 82.9 69.1 96% 29.92 1012.1 0.01 0.3
17 18:54 SW 5 8.00 Light Rain SCT005 SCT070 BKN090 69.1 68 96% 29.91 1012.0 0.04
17 17:54 S 3 7.00 Light Rain SCT005 OVC090 69.1 68 96% 29.91 1012.1
17 16:54 Calm 4.00 Light Rain Fog/Mist FEW055 OVC070 69.1 68 96% 29.9 1011.8 0.14 0.25
17 15:54 NW 9 G 21 3.00 Rain Fog/Mist BKN039 BKN050 OVC070 69.1 66.9 93% 29.91 1011.9 0.11
17 14:54 SW 9 G 18 10.00 Light Rain SCT029 BKN035 OVC100 79 70 74% 82 29.88 1010.9
17 13:54 SW 10 G 22 10.00 Mostly Cloudy SCT024 SCT029 BKN039 81 69.1 81 72 67% 84 29.89 1010.9
17 12:54 SW 7 10.00 Mostly Cloudy FEW019 SCT037 BKN045 79 70 74% 82 29.9 1011.5
17 11:54 SW 8 10.00 Mostly Cloudy FEW021 SCT028 BKN037 78.1 71.1 79% 80 29.92 1011.9
17 10:54 SW 7 10.00 A Few Clouds FEW015 78.1 70 76% 80 29.93 1012.2
17 09:54 SW 7 10.00 Overcast SCT017 BKN038 OVC046 75.9 70 82% 77 29.93 1012.3
17 08:54 Calm 10.00 Overcast OVC015 73.9 69.1 85% 29.93 1012.2
17 07:54 S 3 10.00 Overcast OVC012 72 68 72 66 87% 29.92 1011.9
17 06:54 S 3 10.00 Mostly Cloudy BKN016 BKN031 70 66.9 90% 29.91 1011.4
17 05:54 Calm 10.00 Mostly Cloudy BKN055 BKN070 66 64 93% 29.9 1011.3
17 04:54 Calm 10.00 Fair CLR 66.9 66 97% 29.89 1010.8
17 03:54 S 5 10.00 Fair CLR 68 66 93% 29.89 1010.8
17 02:54 Calm 10.00 Fair CLR 68 64.9 90% 29.89 1010.9
17 01:54 Calm 10.00 Fair CLR 69.1 64.9 84 68 87% 29.89 1010.9
17 00:54 Calm 10.00 Fair CLR 70 64.9 84% 29.9 1011.0
16 23:54 Calm 10.00 Fair CLR 73 64.9 76% 29.9 1010.9
16 22:54 Calm 10.00 Fair CLR 73 64.9 76% 29.89 1010.8
16 21:54 Calm 10.00 Fair CLR 77 64.9 66% 79 29.89 1010.8
16 20:54 NE 3 10.00 Fair CLR 80.1 64 58% 82 29.88 1010.6
16 19:54 NW 5 10.00 Fair CLR 84 64.9 91.9 84 53% 86 29.88 1010.6
16 18:54 NW 8 10.00 Fair CLR 86 64.9 49% 88 29.88 1010.5
16 17:54 NW 12 G 20 10.00 Fair CLR 88 64.9 46% 90 29.87 1010.2
16 16:54 NW 14 G 23 10.00 Fair CLR 88 64 45% 89 29.86 1009.8
16 15:54 W 10 G 23 10.00 Fair CLR 89.1 64.9 45% 91 29.86 1009.7
16 14:54 NW 16 G 29 10.00 Fair CLR 91 64.9 42% 93 29.85 1009.3
16 13:54 W 20 G 36 10.00 A Few Clouds FEW070 91.9 64 93 73 40% 94 29.84 1008.9
16 12:54 SW 13 G 32 10.00 A Few Clouds FEW065 89.1 64.9 45% 91 29.84 1008.9
16 11:54 SW 12 G 29 10.00 Partly Cloudy SCT050 90 66.9 47% 93 29.83 1008.7
16 10:54 S 15 G 24 10.00 Fair CLR 89.1 70 53% 94 29.83 1008.5
16 09:54 Vrbl 5 10.00 Fair CLR 84 70 63% 88 29.83 1008.6
16 08:54 Vrbl 3 10.00 Fair CLR 78.1 68 71% 80 29.84 1009.1
16 07:54 Calm 10.00 Fair CLR 73.9 66.9 73.9 66.9 79% 29.86 1009.7
16 06:54 N 5 10.00 Fair CLR 68 66 93% 29.87 1010.2
16 05:54 S 3 10.00 A Few Clouds FEW038 FEW055 68 64.9 90% 29.87 1010.1
16 04:54 Calm 10.00 Fair CLR 69.1 66 90% 29.86 1009.6
16 03:54 Calm 10.00 Fair CLR 69.1 66 90% 29.87 1009.9
16 02:54 Calm 10.00 Fair CLR 70 66 87% 29.88 1010.5
16 01:54 SW 6 10.00 Partly Cloudy FEW060 SCT075 72 66 86 71.1 82% 29.89 1010.7
16 00:54 Calm 10.00 Fair CLR 72 66 82% 29.89 1010.7
15 23:54 Calm 10.00 Fair CLR 75.9 66 72% 77 29.88 1010.5
15 22:54 Calm 10.00 Fair CLR 77 66 69% 79 29.89 1011.0
15 21:54 W 8 10.00 Fair CLR 81 66 61% 83 29.9 1011.0
15 20:54 W 9 G 20 10.00 Fair CLR 82.9 64.9 55% 85 29.89 1010.9
15 19:54 W 13 G 25 10.00 Fair CLR 86 64 96.1 82 48% 87 29.87 1009.9
15 18:54 W 18 G 29 10.00 Fair CLR 89.1 62.1 41% 89 29.84 1009.2
15 17:54 W 8 10.00 A Few Clouds FEW075 91 66.9 45% 94 29.83 1008.7
15 16:54 Vrbl 5 10.00 Fair CLR 88 69.1 54% 92 29.85 1009.6
15 15:54 SW 21 G 35 10.00 Partly Cloudy and Breezy SCT090 91.9 60.1 34% 92 29.84 1009.1
15 14:54 S 9 G 20 10.00 Fair CLR 95 62.1 34% 96 29.87 1010.0
15 13:54 SW 12 G 24 10.00 Fair CLR 91.9 64.9 93 73 41% 94 29.91 1011.6
15 12:54 S 12 G 21 10.00 Mostly Cloudy FEW039 BKN120 88 71.1 57% 94 29.95 1012.9
15 11:54 Vrbl 6 10.00 Mostly Cloudy SCT030 BKN038 84.9 70 61% 89 29.98 1013.9
15 10:54 SW 6 10.00 Overcast OVC020 81 69.1 67% 84 29.99 1014.5
15 09:54 SW 9 10.00 Overcast OVC021 77 66.9 71% 79 30 1014.8
15 08:54 S 7 10.00 Mostly Cloudy FEW021 SCT028 BKN039 75 66.9 76% 76 30.01 1015.1
15 07:54 SW 8 10.00 Fair CLR 73 66 73 68 79% 30 1014.5
15 06:54 SW 7 10.00 Fair CLR 69.1 64.9 87% 30 1014.5
15 05:54 SW 5 10.00 Fair CLR 69.1 64.9 87% 29.99 1014.1
15 04:54 SW 3 10.00 Fair CLR 70 64.9 84% 29.99 1014.2
15 03:54 S 6 10.00 Partly Cloudy SCT100 70 66 87% 29.98 1013.9
15 02:54 S 5 10.00 Partly Cloudy FEW055 SCT070 70 64.9 84% 29.97 1013.5
15 01:54 Calm 10.00 Partly Cloudy SCT065 70 64 82.9 69.1 82% 29.97 1013.6
Date Time (edt) Wind (mph) Vis. (mi.) Weather Sky Cond. Air Dwpt Max. Min. Relative Humidity Wind Chill (°F) Heat Index (°F) altimeter (in) sea level (mb) 1 hr 3 hr 6 hr
6 hour
Temperature (ºF) Pressure Precipitation (in)